Погода Малые Дербеты

Погода Малые Дербеты : погода сейчас, прогноз погоды и архив. Всё, что Вы хотите узнать о погоде Малые Дербеты!

Хотите узнать прогноз погоды Малые Дербеты? Тогда Вам сюда: Погода Малые Дербеты

Поиск расширенной информации на нашем сайте:

Другие новости

Новости СМИ2

Главная страница сайта

Новости сайта

03.07.2017

Напоминаем, что на нашем специализированном сайте Метеоцентр.Азия вы можете получить высокодетализированные автоматические прогнозы погоды по пунктам России, СНГ и мира в авиационном формате (включающие направление и скорость ветра, видимость, явления погоды, количество и форму облачности, нижнюю и верхнюю границу облачности).

Рекомендуем: Заказать Письмо от Деда Мороза с доставкой на дом.

Погода Малые Дербеты - сегодня

Время (UTC), дата Ветер
(°,м/с) 
Видим.   Явления Облачность Т
(°С)
Тd
(°С)
f(%) Тe
(°С)
Pmin
(гПа)
dP
(гПа)
Po
(мм)
O2
(г/м3)
Тmin Tmax R s Состояние
почвы
21 21.04.18 200 (Ю) 20000 м    3/0 верхняя 
[Ci fib]
+9 +3.5 68 +8  1008  -1.5  755  294           
00 22.04.18 180 (Ю) 20000 м    3/0 верхняя 
[Ci fib]
+8.5 +3.4 70 +8  1005.1  -2.9  753  294           
03 22.04.18 200 (Ю) 7-14  20000 м  пыльный позёмок  10/3 600 м средняя 
[Cu hum|Ac lent]
+10.3 +2.2 57 +9  1001.4  -3.6  750  291  +8.2        сухая 
06 22.04.18 230 (ЮЗ) 6-12{15}  4000 м  слаб. ливневой дождь  9/3 600 м кучево-дожд., средняя 
[Cb cap|Ac As]
+10.3 +5.5 72 +9  1001.9  0.5  751  291           
09 22.04.18 230 (ЮЗ) 6-12{14}  20000 м  {ливн. осадки}  4/4 600 м 
[Cu med, cong]
+15.4 +9.3 67 +15  1001  -0.9  750  284           
12 22.04.18 250 (З) 7-13  20000 м  {ливн. осадки}  4/4 600 м 
[Cu med, cong]
+18.5 +3 36 +18  1000.7  -0.3  750  282           
15 22.04.18 280 (З) 3{13}  20000 м    5/3 600 м верхняя 
[Cu med, cong|Ci fib]
+17 +0.5 33 +17  1001.4  0.7  750  284    +18.8     
18 22.04.18 210 (ЮЗ) 20000 м    10/3 600 м кучево-дожд., средняя 
[Cb cap|Ac und]
+11 +5.5 69 +12  1003.7  2.3  752  290           
21 22.04.18 200 (Ю) 4000 м  слаб. ливневой дождь  9/6 600 м кучево-дожд., средняя 
[Cb cap|Ac As]
+9 +5 76 +10  1004.2  0.4  752  293           
00 23.04.18 250 (З) 20000 м  {ливн. осадки}  4/0 средняя 
[Ac trans]
+7.2 +4.2 81 +6  1004.8  0.7  753  295           
03 23.04.18 250 (З) 20000 м    6/0 средняя 
[Ac trans]
+6.3 +3.9 85 +5  1006.2  1.3  754  296  +6    0.3    влажная 
06 23.04.18 280 (З) 20000 м    4/4 600 м 
[Cu med, cong]
+10.1 +4 66 +9  1007.5  1.3  755  293           
09 23.04.18 300 (СЗ) 20000 м    6/6 600 м 
[Cu med, cong]
+11.3 +2.3 54 +11  1008.9  1.4  756  292           
12 23.04.18 300 (СЗ) 20000 м    6/6 600 м 
[Cu med, cong]
+10.7 -1.3 43 +10  1009.5  0.6  756  293           
15 23.04.18 310 (СЗ) 4{10}  20000 м    4/0 средняя 
[Ac trans]
+8.7 -4 40 +8  1011.4  0.6  758  296    +11.9       
18 23.04.18 280 (З) 20000 м    10/5 600 м средняя 
[Sc|Ac und]
+6.2 -3.4 50 +6  1014.5  3.1  760  300           
21 23.04.18 280 (З) 20000 м    1/0 средняя 
[Ac lent]
+3.3 -4.9 55 +3  1015.6  761  303           
00 24.04.18 240 (ЮЗ) 20000 м    ясно 
+0.1 -4 74 -1  1016.4  0.8  761  307           
03 24.04.18 240 (ЮЗ) 20000 м    ясно 
+1.7 -3.4 69 1017.6  1.2  762  306  +0.1        замёрзшая 
06 24.04.18 270 (З) 5{11}  20000 м    ясно 
+9.2 -6.1 33 +8  1018.8  1.2  763  298           
09 24.04.18 260 (З) 3{11}  20000 м    1/1 600 м 
[Cu hum]
+11.6 -6.1 28 +11  1018.9  763  296           
12 24.04.18 230 (ЮЗ) 4{10}  20000 м    ясно 
+13.1 -7.1 24 +13  1018.3  -0.6  763  294           
15 24.04.18 240 (ЮЗ) 20000 м    ясно 
+12.5 -8.3 23 +12  1017.7  -0.6  762  295    +13.4       
18 24.04.18 170 (Ю) 20000 м    10/0 верхняя 
[Ci fib]
+5.6 -2.8 55 +6  1017.7  762  301           
21 24.04.18 130 (ЮВ) 20000 м    10/0 верхняя 
[Cs]
+6.8 +0.2 63 +7  1017.2  -0.6  762  300           
Время (UTC), дата Ветер
(°,м/с) 
Видим.   Явления Облачность Т
(°С)
Тd
(°С)
f(%) Тe
(°С)
Pmin
(гПа)
dP
(гПа)
Po
(мм)
O2
(г/м3)
Тmin Tmax R s Состояние
почвы

Для получения пояснительной информации подведите курсор к названию столбца.

ПОГОДА Малые Дербеты - архив

Всё, что Вы хотите узнать о погоде Малые Дербеты - удобно и подробно!

Выберите нужную дату (начиная с 1 января 2015* года) и нажмите кнопку "Найти".
Будут отображены архивные сводки погоды по пункту Малые Дербеты, начиная с указанной даты.


Отображать данные в формате CSV (для использования в таблицах Excel)


Внимание! Наш архив погоды предназначен исключительно для личного некоммерческого использования в познавательных целях. Если Вам необходимы официальные справки о состоянии погоды (для производственных, юридических, коммерческих и т.п. целей), обращайтесь в органы Росгидромета.

*Примечание: данная дата относится к архиву по метеостанциям СССР (Россия, СНГ, Балтия).
Архив по метеостанциям Зарубежной Европы и Азии (кроме Китая) хранится 10 дней, по другим регионам земного шара (Китай, Африка, Америка, Австралия, Океания) - 1 день.

Малые Дербеты - район местоположения метеостанции


Название, широта, долгота, высота метеостанции:
Малые Дербеты 47.9°ш. 44.7°д. 9 м над ур. моря [Российская Федерация]

Дополнительная информация

В oтличие oт бoльшинства пoгoдных сайтoв мы публикуем пoдрoбную метеoинфoрмацию в детальнoм прoфессиoнальнoм фoрмате.

Характеристики температуры и влажнoсти вoздуха измеряются на высoте 2 м в тени вдали oт зданий и деревьев.
Скoрoсть ветра измеряется на высoте 10 м (на урoвне рoста челoвека скoрoсть ветра ниже в 1.5-2 раза). Если метеoстанция нахoдится в гoрoде или в лесу, тo скoрoсть ветра занижена на 2-4 м/с пo сравнению с oткрытым местoм. Скoрoсть ветра над акватoриями крупных рек и oзёр, а также на вершинах хoлмoв на 2-5 м/с выше, чем в oбычных услoвиях.
Атмoсфернoе давление в разных тoчках местнoсти мoжет значительнo oтличаться oт давления на метеoстанции, в зависимoсти oт услoвий рельефа (при пoдъёме на 10 м давление пoнижается примернo на 1 мм рт.ст.).